Regional Weather Roundup
Issued by NWS Boston, MA

Current Version | Previous Version | Text Only | Print | Product List | Glossary On
Versions: 1 2 3 4 5 6 7 8 9 10 11 12 13 14 15 16 17 18 19 20 21 22 23 24 25 26 27 28 29 30 31 32 33 34 35 36 37 38 39 40 41 42 43 44 45 46 47 48 49 50
000
ASUS41 KBOX 221510
RWRBOX

REGIONAL WEATHER ROUNDUP
NATIONAL WEATHER SERVICE TAUNTON MA
1100 AM EDT MON MAY 22 2017

NOTE:  "FAIR" INDICATES FEW OR NO CLOUDS BELOW 12,000 FEET WITH NO
SIGNIFICANT WEATHER AND/OR OBSTRUCTIONS TO VISIBILITY.

MAZALL-221600-
EASTERN MASSACHUSETTS

CITY           SKY/WX    TMP DP  RH WIND       PRES   REMARKS
BOSTON         LGT RAIN  52  40  63 S8G18     30.21S
BEVERLY        CLOUDY    54  45  71 S7        30.19F
LAWRENCE       CLOUDY    55  45  68 VRB5      30.21F
BEDFORD        LGT RAIN  50  44  80 S8        30.19F
BLUE HILL        N/A     51  45  79 S8        30.18F
NORWOOD        LGT RAIN  54  48  80 S5        30.20S
MARSHFIELD     CLOUDY    54  41  62 S7        30.20S
PLYMOUTH       CLOUDY    54  43  66 S8        30.20F
TAUNTON        CLOUDY    54  46  74 VRB3      30.20F
NEW BEDFORD    CLOUDY    55  46  71 S9        30.19F
$$

MAZALL-221600-
CAPE COD AND THE ISLANDS

CITY           SKY/WX    TMP DP  RH WIND       PRES   REMARKS
FALMOUTH         N/A    N/A N/A N/A MISG        N/A
HYANNIS        CLOUDY    56  44  64 S9G18     30.19F
CHATHAM        CLOUDY    54  43  66 VRB5      30.22F
PROVINCETOWN   CLOUDY    55  41  59 S7        30.21F
NANTUCKET      CLOUDY    53  42  66 SE13      30.21F
MARTHAS VNYRD  CLOUDY    56  44  64 S13       30.20F
$$

MAZALL-221600-
CENTRAL AND WESTERN MASSACHUSETTS

CITY           SKY/WX    TMP DP  RH WIND       PRES   REMARKS
WORCESTER      LGT RAIN  46  41  81 SW14      30.17F
FITCHBURG      CLOUDY    51  46  83 S8        30.19F
ORANGE         LGT RAIN  50  47  89 S9        30.15F
SPRINGFIELD    CLOUDY    53  44  73 SE5       30.13F
WESTFIELD      CLOUDY    54  48  80 S5        30.13F
NORTH ADAMS    CLOUDY    54  45  71 E10G18    30.08F
PITTSFIELD     CLOUDY    51  42  71 S8        30.09F
$$

RIZALL-221600-
RHODE ISLAND

CITY           SKY/WX    TMP DP  RH WIND       PRES   REMARKS
PROVIDENCE     CLOUDY    56  47  71 S9        30.19F
NEWPORT        CLOUDY    54  47  77 S12       30.19F
BLOCK ISLAND   CLOUDY    54  49  83 S13       30.18F
SMITHFIELD     CLOUDY    52  41  66 SW8       30.19F
WESTERLY       CLOUDY    56  49  77 S8        30.18F
$$

CTZALL-221600-
CONNECTICUT

CITY           SKY/WX    TMP DP  RH WIND       PRES   REMARKS
BRADLEY INTL   CLOUDY    56  42  59 S12       30.15F
HARTFORD       CLOUDY    55  47  74 S9        30.15F
BRIDGEPORT     LGT RAIN  57  51  80 SE9       30.14F
DANBURY        CLOUDY    55  50  83 SE7       30.13F
GROTON         CLOUDY    56  49  77 SE10      30.17F
NEW HAVEN      CLOUDY    57  50  77 S10       30.15F
CHESTER        CLOUDY    55  48  76 SE8G15    30.16F
MERIDEN        CLOUDY    56  48  74 S8        30.15F
WILLIMANTIC    CLOUDY    55  46  71 VRB6      30.17F
OXFORD         CLOUDY    54  45  71 S12       30.16F
$$

MEZ002-015-021-024-NHZ003-005-008-011-012-014-VTZ005-008-221600-
NORTHERN NEW ENGLAND

CITY           SKY/WX    TMP DP  RH WIND       PRES   REMARKS
PORTLAND ME    CLOUDY    54  48  80 S6        30.19F
BANGOR ME      CLOUDY    56  40  55 S12       30.20F
CONCORD NH     CLOUDY    51  47  86 VRB5      30.16F
MANCHESTER NH  CLOUDY    52  42  69 S13       30.16F
NASHUA NH      CLOUDY    52  46  80 VRB6      30.18F
PORTSMOUTH NH  CLOUDY    54  46  75 S9        30.18F
JAFFREY NH     CLOUDY    50  44  80 S9        30.15F
KEENE NH       CLOUDY    51  45  79 S6        30.15F
BURLINGTON VT  CLOUDY    54  42  64 S12G20    30.04F
MT. WASHINGTON FOG       37  37 100 W22         N/A  VSB 0   WCI  27
$$

NYZ052-076-221600-
EASTERN NEW YORK

CITY           SKY/WX    TMP DP  RH WIND       PRES   REMARKS
ALBANY         CLOUDY    57  45  64 S10G21    30.06F
NEW YORK CITY  LGT RAIN  57  53  86 SE12      30.12F FOG
$$

ANZALL-221600-
MARINE OBSERVATIONS

STATION/POSITION TIME  TEMP    WIND        PRES    VSBY  WAVE
                       AIR SEA DIR/SP/G                  HT/PER
                 (UTC) (F)     (DEG/KT/KT) (MB)    (MI)  (FT/S)
BOSTON BUOY      1450   53 53  150/ 10/ 12 1021.8F         1/ 3
BUZZARDS BAY     1400   53     160/ 15/ 16 1023.1F
NANTUCKET SOUND  1450      54              1022.5F         1/ 3
MASS BAY-STELLWA 1404   53 53  180/ 10/ 12 1022.1F         1/ 3
ISLE OF SHOALS   1400   52     180/  6/  7 1022.7F
S OF BLOCK IS    1455      53                N/A           2/ 8
$$

......................KEY.........................
  SKY/WX - SKY CONDITION/PRESENT WEATHER
  TMP    - TEMPERATURE IN FAHRENHEIT
  DWPT   - DEWPOINT IN FAHRENHEIT
  RH     - RELATIVE HUMIDITY IN PERCENT
  WIND   - DIRECTION AND SPEED IN MPH
  PRES   - MEAN SEA LEVEL PRESSURE IN INCHES OF HG
  WCI    - WIND CHILL INDEX
  VSB    - VISIBILITY IN MILES
  HX     - HEAT INDEX
  TC     - TEMPERATURE IN CELSIUS
  VRB    - VARIABLE WIND DIRECTION
  N/A    - NOT AVAILABLE



USA.gov is the U.S. government's official web portal to all federal, state and local government web resources and services.